Location: North Mitre
(40.7833°S, 175.4667°E)
Time: 18:12:12
(UTC+00:00)

JB-3 - Pass Details

Date: 04 August 2024
Orbit: 506 x 558 km, 97.2° (Epoch: 18 September)

Event Time Altitude Azimuth Distance (km) Brightness Sun altitude
Rises 17:52:17 0° 169° (S) 2,783 8.0 -16.9°
Reaches altitude 10° 17:54:28 10° 169° (S) 1,872 7.1 -16.5°
Maximum altitude 17:58:31 87° 254° (WSW) 564 4.2 -15.8°
Drops below altitude 10° 18:02:28 10° 346° (NNW) 1,812 6.9 -15.0°
Sets 18:04:32 0° 346° (NNW) 2,686 7.8 -14.6°
